RH
65 58 52 40 44 43 47 44 70 80 74 78 78 87 91 90 91 97 71 44 54 47 80 82 81 78 73 68 64 69 72 68 40 9 9 45 73 57 34 56 58 52 50
62 55 61 48 46 54 55 52 46 65 77 75 67 84 100 89 88 85 61 50 50 56 75 97 98 91 82 82 80 73 73 58 62 56 21 24 44 49 47 22 47 71 70
52 52 43 35 36 52 57 57 53 55 72 77 74 78 96 94 100 82 62 61 51 64 73 81 97 90 84 81 77 76 76 68 63 53 52 45 42 46 50 38 24 27 38
30 28 22 24 45 58 62 65 62 59 68 81 78 83 87 91 94 89 89 71 63 58 66 68 74 84 79 74 72 74 76 80 79 75 57 49 55 61 62 72 59 45 49
29 16 16 36 61 66 67 67 66 67 74 81 78 86 82 90 96 90 100 92 62 53 56 49 73 78 74 80 86 82 80 78 80 81 79 76 76 64 65 58 53 61 68
18 12 18 49 55 62 69 73 78 80 82 83 82 85 87 98 99 96 100 96 65 70 59 44 34 39 64 70 72 80 77 80 78 70 77 81 77 81 79 64 37 28 30
16 12 18 48 59 68 81 78 88 91 87 84 97 94 99 98 87 98 97 92 72 22 54 63 42 31 30 38 51 57 54 54 56 57 59 72 77 78 80 80 77 76 76
17 12 21 36 61 71 82 84 84 81 93 78 74 100 98 98 96 100 96 90 71 22 19 67 68 58 47 36 28 25 28 25 22 22 28 40 52 61 66 68 64 61 61
18 11 19 27 59 66 74 88 83 86 78 84 73 93 95 96 99 100 97 97 73 24 19 34 49 55 61 59 57 54 48 49 52 48 44 35 26 24 25 24 24 23 23
17 11 15 27 52 65 79 90 89 90 81 87 97 98 100 100 100 94 95 97 93 27 18 15 16 19 19 18 18 15 14 12 13 13 13 18 22 24 26 28 28 28 29
15 11 14 25 51 67 73 97 99 99 92 93 98 96 99 97 100 99 99 98 38 15 13 13 12 12 11 11 11 10 10 10 9 10 9 9 9 9 8 8 8 8 7
12 12 14 22 40 51 72 98 81 96 99 98 94 96 99 99 98 94 50 20 16 14 12 12 12 11 11 11 10 10 10 10 9 9 9 8 9 9 9 10 9 9 8
11 11 15 20 30 48 68 98 86 87 95 100 98 100 100 98 78 56 30 23 24 17 12 13 16 12 11 11 10 10 10 10 10 10 11 12 14 17 17 18 18 18 17
11 14 15 19 35 45 81 93 79 73 72 69 81 88 83 72 46 36 45 49 36 19 19 14 12 11 11 11 11 10 10 11 12 14 16 20 21 21 20 19 17 16 15
11 13 13 17 32 45 75 97 71 71 83 84 76 72 74 69 61 52 48 45 36 24 17 15 14 13 12 12 12 10 12 13 16 19 21 22 20 19 19 18 17 16 15
13 12 12 15 23 52 63 86 88 81 85 96 91 81 72 67 58 52 39 44 41 39 30 16 15 14 13 13 12 11 12 16 19 22 23 23 21 20 18 18 18 18 18
12 13 13 14 18 26 51 82 91 93 89 96 97 94 93 86 80 73 74 74 57 40 22 16 14 13 13 14 13 12 12 16 19 23 24 24 23 21 20 19 19 18 18
10 10 12 14 16 22 32 48 88 88 94 96 94 80 94 99 91 88 92 88 77 61 50 31 21 16 14 14 14 13 12 15 19 22 24 25 25 23 21 20 20 20 20
13 13 10 11 16 21 30 40 61 98 99 99 99 100 94 78 88 98 95 93 98 90 76 59 28 20 18 16 15 16 14 14 17 21 24 25 26 26 24 23 22 21 21
15 16 16 14 11 20 30 41 52 67 90 100 100 100 100 96 93 84 79 99 96 100 99 85 61 29 21 19 18 18 18 18 17 19 22 24 26 28 28 27 26 25 24
28 28 25 16 16 12 18 28 38 54 57 62 96 100 100 100 98 98 99 92 80 90 91 89 76 56 33 24 21 20 20 20 19 20 23 25 26 28 29 29 29 29 28
29 29 25 19 18 17 17 27 44 54 64 76 71 86 97 100 100 100 100 100 98 99 99 94 87 73 47 33 27 24 23 21 20 19 19 22 24 25 27 29 29 30 30
29 27 23 20 20 20 19 26 37 52 56 71 76 85 90 100 98 100 100 100 100 96 98 100 78 87 66 50 38 30 27 25 23 22 21 20 20 20 23 26 29 30 31
28 28 28 22 22 24 24 22 29 49 58 59 74 97 100 100 98 97 100 100 100 100 96 98 64 63 69 69 64 50 40 34 30 29 27 26 25 26 26 27 29 31 32
28 27 27 27 25 24 29 28 34 40 50 58 75 92 100 100 100 100 100 100 100 100 100 99 100 82 60 58 68 67 58 49 43 38 35 33 32 31 30 30 30 32 32
36 35 33 31 29 29 28 32 35 37 42 53 69 79 100 99 99 99 100 100 99 87 100 99 99 100 98 85 77 74 84 75 64 56 48 45 41 39 38 36 35 36 35
Wind_Speed
14 13 12 11 10 10 10 8 10 13 12 14 16 18 17 14 12 8 14 14 13 13 11 12 13 14 14 14 14 14 14 15 15 15 15 16 16 16 16 17 17 17 17
11 13 18 17 16 16 16 12 11 15 16 16 16 19 23 15 11 12 16 14 14 14 13 13 13 14 15 15 15 15 16 16 15 15 15 15 16 15 16 17 16 15 15
19 23 22 20 19 16 14 13 12 15 18 17 17 19 19 15 16 15 18 16 17 16 16 15 14 11 14 14 14 14 15 15 14 14 15 15 16 16 16 16 16 16 15
22 22 24 20 16 14 15 15 15 15 20 18 17 20 19 18 19 17 19 22 19 19 17 16 15 16 15 15 15 14 13 13 13 14 13 13 14 14 14 15 15 14 13
22 22 19 15 14 15 17 18 19 20 19 18 18 21 20 22 21 23 26 27 22 20 20 17 17 16 16 15 15 15 15 15 15 14 14 14 13 15 13 14 13 13 13
20 17 15 12 14 16 18 18 19 21 22 20 18 22 25 24 20 30 34 35 31 20 18 19 17 17 17 16 17 16 14 12 12 12 13 13 14 13 13 12 12 13 12
18 14 12 13 14 14 10 10 11 17 23 21 12 34 31 42 29 28 28 29 31 19 19 18 17 16 16 17 17 17 15 13 13 14 14 13 13 13 12 12 11 10 10
16 13 11 12 11 9 4 10 14 12 13 28 27 21 30 26 26 35 30 31 30 21 18 18 18 18 17 16 14 14 14 13 12 11 13 14 14 14 13 12 12 11 11
16 12 11 11 9 6 7 9 9 18 10 17 25 30 31 21 24 30 32 32 27 15 16 17 18 18 17 16 15 14 13 12 12 13 12 12 12 13 12 13 13 13 13
16 13 11 11 11 9 10 5 5 11 16 22 23 13 22 26 27 31 25 34 29 11 15 16 16 18 16 16 15 14 12 12 12 13 13 13 13 12 11 12 11 11 11
16 14 12 11 10 9 6 3 11 17 17 17 21 22 28 19 21 17 19 28 18 18 18 18 15 14 14 14 13 13 12 11 12 13 13 13 12 11 10 10 10 11 11
19 15 12 12 11 8 4 8 5 14 20 20 20 19 18 27 18 16 20 20 20 19 17 14 14 14 14 14 14 13 13 12 13 13 13 12 11 11 12 13 13 14 14
21 17 13 13 13 9 4 7 4 9 12 15 16 20 24 19 22 23 21 19 16 15 15 16 14 14 14 14 14 13 13 13 14 13 12 11 11 12 13 14 15 16 16
21 19 16 15 14 12 8 9 12 13 17 16 14 19 20 21 16 14 14 17 17 17 17 16 16 15 15 15 15 13 13 14 13 13 13 11 12 13 15 16 16 16 16
23 21 17 16 16 15 14 15 17 12 11 11 11 12 15 22 20 16 14 17 15 15 16 17 16 16 16 15 15 14 14 15 15 14 13 13 15 15 15 15 16 16 16
26 22 20 19 18 19 19 20 18 17 17 12 13 14 14 14 15 15 21 23 24 23 20 16 16 16 16 16 16 15 16 15 16 15 15 16 16 15 16 16 17 17 17
26 25 24 22 21 22 23 24 24 21 20 18 14 15 17 16 15 15 15 15 18 19 20 19 17 17 16 16 17 17 17 17 18 17 17 17 17 17 17 17 18 19 19
27 26 28 28 24 25 26 26 28 26 24 25 20 18 18 18 19 19 19 19 19 19 18 17 18 19 18 19 19 19 19 19 20 20 20 19 19 19 19 19 20 20 21
25 24 25 29 28 28 28 28 30 32 30 29 29 23 22 22 22 20 21 21 19 19 19 19 19 21 21 21 21 20 21 22 22 22 23 22 22 22 22 21 22 22 22
27 25 27 27 31 31 31 31 32 34 34 33 33 32 27 25 25 26 26 20 24 21 22 20 21 22 22 23 23 23 24 24 25 25 25 25 25 25 24 24 23 23 24
37 35 34 34 32 35 36 35 35 35 35 34 35 34 32 30 30 29 27 27 25 29 29 26 24 24 24 24 24 24 25 25 26 26 26 27 26 26 25 25 25 25 25
41 37 35 36 36 35 38 37 36 35 35 35 34 34 35 33 32 29 29 27 26 25 29 29 29 27 27 27 26 26 27 27 26 26 27 27 28 29 28 28 28 29 29
40 41 36 36 37 37 38 40 40 40 40 38 36 35 34 34 34 31 32 31 30 32 32 31 32 30 29 28 28 29 28 29 27 29 29 29 30 31 30 30 31 32 32
37 38 38 38 39 39 39 40 40 40 38 36 36 35 35 34 35 34 34 34 34 33 28 31 31 30 33 31 30 29 31 31 30 30 30 31 32 30 31 32 33 33 34
32 32 31 31 37 39 40 40 39 38 39 38 38 38 37 36 36 36 36 35 34 33 34 30 30 31 30 32 32 31 31 32 32 32 33 32 33 32 32 34 36 35 36
28 28 29 28 29 33 37 41 40 39 40 40 40 40 39 39 39 39 40 38 37 35 38 38 38 34 30 28 29 33 33 33 33 35 35 35 35 34 34 36 37 38 38
Wind_Direction
279 278 303 295 279 295 302 287 245 246 230 224 236 225 212 204 215 215 216 213 179 172 162 162 158 157 153 149 144 141 137 131 127 135 137 136 130 125 127 134 130 134 133
269 269 294 289 279 281 286 279 257 247 234 221 233 230 219 225 217 227 206 206 180 172 158 159 155 153 156 155 152 151 143 140 137 135 135 135 137 134 133 133 143 143 139
282 285 291 286 280 275 267 268 259 247 243 236 230 227 224 232 210 246 193 205 183 176 168 170 157 157 163 160 155 153 149 146 143 142 138 138 136 138 138 137 139 144 145
287 291 293 286 273 261 264 267 252 248 245 244 240 229 230 227 217 220 208 209 190 184 177 174 170 174 172 171 167 169 161 153 150 148 145 151 148 142 142 143 144 147 147
291 294 289 281 272 268 266 262 254 245 238 236 237 228 241 232 229 226 215 216 187 188 184 173 175 175 176 173 174 175 174 168 161 155 154 154 147 146 152 148 149 147 145
296 303 288 281 277 282 277 266 253 240 236 230 229 236 232 224 219 202 202 201 171 175 179 179 186 187 189 190 190 189 184 177 172 172 173 171 169 169 163 159 164 161 159
302 303 286 279 280 296 266 254 232 227 240 220 216 216 164 195 207 191 190 198 168 174 180 180 183 183 189 194 200 200 191 189 188 187 193 192 187 183 180 175 177 175 175
303 305 284 274 283 314 231 240 217 267 222 207 209 167 185 202 202 193 191 182 168 167 179 183 183 185 189 191 195 197 190 186 189 190 203 207 205 200 200 200 199 200 201
301 305 284 274 281 291 297 256 231 210 252 212 224 226 240 215 186 195 192 202 166 176 179 186 191 193 192 198 197 203 197 188 187 192 197 200 204 207 208 211 213 216 219
294 300 284 274 279 282 295 300 213 182 207 208 211 199 192 213 198 204 212 183 182 189 181 189 191 194 194 199 199 201 203 193 191 201 204 208 211 211 211 217 216 220 221
285 291 286 274 267 273 302 253 202 196 206 204 219 246 246 206 210 212 207 196 166 189 188 187 187 192 197 200 204 204 205 211 208 208 214 218 221 224 226 233 235 233 233
278 278 278 271 260 261 311 250 234 214 219 230 233 239 229 212 195 196 173 174 178 188 189 189 197 202 207 212 217 219 220 221 230 228 227 230 233 236 237 234 234 241 243
268 269 267 259 259 246 226 234 226 164 176 213 223 209 215 203 174 181 180 178 176 191 196 198 206 214 218 223 227 229 232 230 231 236 237 239 238 242 244 248 245 244 246
262 263 257 252 240 240 203 216 182 151 139 147 158 188 182 175 181 181 174 179 197 202 208 208 212 220 224 228 230 228 233 234 232 237 240 242 249 248 249 252 253 251 250
260 261 255 247 238 226 215 204 192 201 207 187 166 161 169 165 164 177 182 204 219 224 213 214 217 223 229 232 236 233 228 232 235 239 246 250 252 251 248 249 252 252 252
254 253 251 244 237 226 220 210 214 212 207 226 206 188 193 200 197 196 190 193 194 203 227 228 227 229 231 237 242 238 237 236 241 242 248 254 257 257 254 251 253 254 253
247 246 248 242 235 231 220 216 218 223 222 218 222 236 209 209 215 216 217 222 216 221 227 231 234 237 241 242 245 245 243 242 243 245 248 253 258 258 258 257 253 255 255
243 246 245 244 238 233 228 219 216 220 225 225 229 233 242 233 221 227 226 226 229 230 232 232 235 237 239 243 244 247 245 244 245 248 250 252 255 257 257 258 259 258 258
235 241 244 246 240 233 233 227 221 220 223 229 234 237 241 237 243 242 239 245 242 244 241 241 239 237 236 237 242 244 248 247 245 245 248 251 253 255 255 254 255 258 260
248 245 246 243 244 236 230 230 227 227 226 228 233 238 242 239 237 237 237 240 249 254 252 251 250 245 240 241 241 242 244 247 250 250 249 249 249 252 256 257 258 259 260
257 254 250 244 239 239 237 231 232 230 230 231 233 237 242 239 240 240 238 243 249 245 246 246 251 254 252 248 248 249 251 252 252 254 256 257 257 257 258 262 264 265 265
264 258 245 238 237 235 234 235 232 234 236 234 234 237 237 238 240 243 247 243 239 244 252 251 244 245 248 250 251 252 254 256 258 259 260 261 262 263 264 265 265 266 266
262 261 245 237 235 235 235 232 231 230 231 232 233 234 237 238 241 238 247 246 239 241 245 251 252 247 247 247 250 253 255 256 257 258 258 260 262 265 266 267 267 267 267
253 250 245 235 233 231 232 234 232 233 236 237 236 234 239 239 245 240 240 248 251 251 247 255 254 246 244 246 249 251 253 254 253 255 258 260 260 262 263 263 265 266 268
239 239 241 237 236 233 232 234 232 232 234 233 233 235 235 239 242 247 246 244 255 253 261 262 261 263 253 248 249 251 255 258 259 261 261 262 264 266 267 268 268 268 268
226 228 234 233 232 236 237 237 236 235 235 234 235 234 232 234 237 240 243 245 250 258 253 267 250 259 269 261 258 253 254 256 258 260 262 264 266 266 267 268 269 271 272